Location: ??????????
(54.8537°N, 38.8755°E)
Time: 15:53:04
(UTC+00:00)

deb Explorer IX - All Passes

Search period start: 13 September 2024 00:00
Search period end: 23 September 2024 00:00
Orbit: 505 x 849 km, 38.7° (Epoch: 13 September)

Date Brightness Start Highest point End Pass type
(mag) Time Alt. Az. Time Alt. Az. Time Alt. Az.
13 Sep - 19:18:41 10° SSW 19:21:39 14° S 19:24:31 10° SE visible
13 Sep - 21:01:32 10° SW 21:04:05 13° SSW 21:06:33 10° SSE night (unlit)
14 Sep - 18:11:29 10° S 18:13:57 13° SSE 18:16:22 10° SE visible
14 Sep - 19:53:15 10° SW 19:56:24 15° S 19:59:27 10° SSE night (unlit)
15 Sep - 17:05:54 10° SSE 17:06:11 10° SSE 17:06:26 10° SSE visible
15 Sep - 18:45:19 10° SSW 18:48:34 15° S 18:51:45 10° SE visible
15 Sep - 20:28:29 10° SW 20:30:59 13° SSW 20:33:26 10° SSE night (unlit)
16 Sep - 17:37:44 10° SSW 17:40:38 14° SSE 17:43:30 10° SE visible
16 Sep - 19:19:53 10° SW 19:23:05 15° S 19:26:14 10° SSE visible
17 Sep - 16:30:50 10° S 16:32:37 11° SSE 16:34:25 10° SE visible
17 Sep - 18:11:38 10° SW 18:15:02 16° S 18:18:22 10° SE visible
17 Sep - 19:55:07 10° SW 19:57:26 12° SSW 19:59:44 10° S visible
18 Sep - 17:03:43 10° SSW 17:06:52 15° S 17:10:00 10° SE visible
18 Sep - 18:46:08 10° SW 18:49:19 15° S 18:52:26 10° SSE visible
19 Sep - 15:56:19 10° S 15:58:38 12° SSE 16:00:58 10° SE daylight
19 Sep - 17:37:38 10° SW 17:41:02 16° S 17:44:27 10° SE visible
19 Sep - 19:21:28 10° SW 19:23:25 12° SSW 19:25:21 10° S visible
20 Sep - 16:29:24 10° SSW 16:32:39 15° S 16:35:56 10° SE visible
20 Sep - 18:12:05 10° SW 18:15:06 14° SSW 18:18:06 10° SSE visible
21 Sep - 15:21:38 10° SSW 15:24:12 13° SSE 15:26:49 10° SE daylight
21 Sep - 17:03:16 10° SW 17:06:36 16° S 17:09:59 10° SSE visible
21 Sep - 18:47:45 10° SSW 18:48:56 11° SSW 18:50:08 10° S visible
22 Sep - 15:54:47 10° SSW 15:58:01 15° S 16:01:18 10° SE visible
22 Sep - 17:37:42 10° SW 17:40:25 13° SSW 17:43:09 10° SSE visible
